timestamp,wind_dir_avg,wind_spd_avg,wind_spd_max_dir,wind_spd_gust,battery_voltage,lat,long
2023-09-17 00:04:00+00:00,161.0,9.05,162.0,10.08,12.49,47.59359,-54.27349
2023-09-17 00:14:01+00:00,161.0,8.47,164.0,10.45,12.49,47.59359,-54.27349
2023-09-17 00:24:01+00:00,159.0,8.88,158.0,10.22,12.49,47.59359,-54.27349
2023-09-17 00:34:01+00:00,164.0,7.73,159.0,9.2,12.49,47.59359,-54.27349
2023-09-17 00:44:01+00:00,163.0,6.52,160.0,7.72,12.49,47.59359,-54.27349
2023-09-17 00:54:01+00:00,169.0,7.78,169.0,8.54,12.49,47.59359,-54.27349
2023-09-17 01:04:01+00:00,170.0,7.73,174.0,8.24,12.49,47.59359,-54.27349
2023-09-17 01:14:01+00:00,171.0,7.67,171.0,8.73,12.41,47.59359,-54.27349
2023-09-17 01:24:01+00:00,174.0,7.38,173.0,9.02,12.41,47.59359,-54.27349
2023-09-17 01:34:01+00:00,171.0,7.94,170.0,9.14,12.41,47.59359,-54.27349
2023-09-17 01:44:01+00:00,166.0,8.57,166.0,9.65,12.41,47.59359,-54.27349
2023-09-17 01:54:01+00:00,168.0,8.05,169.0,9.38,12.41,47.59359,-54.27349
2023-09-17 02:04:01+00:00,168.0,9.67,174.0,11.2,12.41,47.59359,-54.27349
2023-09-17 02:14:01+00:00,171.0,9.82,175.0,11.52,12.41,47.59359,-54.27349
2023-09-17 02:24:01+00:00,175.0,8.9,169.0,11.23,12.41,47.59359,-54.27349
2023-09-17 02:34:01+00:00,180.0,10.57,177.0,11.93,12.41,47.59359,-54.27349
2023-09-17 02:44:01+00:00,176.0,9.06,177.0,10.81,12.41,47.59359,-54.27349
2023-09-17 02:54:01+00:00,171.0,9.09,170.0,10.25,12.41,47.59359,-54.27349
2023-09-17 03:04:01+00:00,173.0,8.55,174.0,10.24,12.41,47.59359,-54.27349
2023-09-17 03:14:01+00:00,176.0,8.88,175.0,10.38,12.41,47.59359,-54.27349
2023-09-17 03:24:01+00:00,179.0,9.03,180.0,10.19,12.41,47.59359,-54.27349
2023-09-17 03:34:01+00:00,175.0,10.93,175.0,12.45,12.41,47.59359,-54.27349
2023-09-17 03:44:01+00:00,171.0,10.82,174.0,12.24,12.41,47.59359,-54.27349
2023-09-17 03:54:01+00:00,176.0,10.57,200.0,13.36,12.41,47.59359,-54.27349
2023-09-17 04:04:01+00:00,178.0,10.49,190.0,12.03,12.41,47.59359,-54.27349
2023-09-17 04:14:01+00:00,172.0,11.26,172.0,13.37,12.41,47.59359,-54.27349
2023-09-17 04:24:01+00:00,176.0,11.12,175.0,12.94,12.41,47.59359,-54.27349
2023-09-17 04:34:01+00:00,176.0,10.82,179.0,12.36,12.41,47.59359,-54.27349
2023-09-17 04:44:01+00:00,174.0,11.14,170.0,12.79,12.41,47.59359,-54.27349
2023-09-17 04:54:01+00:00,180.0,12.62,196.0,16.29,12.41,47.59359,-54.27349
2023-09-17 05:04:01+00:00,184.0,13.57,198.0,15.8,12.41,47.59359,-54.27349
2023-09-17 05:14:01+00:00,183.0,13.27,199.0,15.6,12.41,47.59359,-54.27349
2023-09-17 05:24:01+00:00,182.0,13.86,178.0,17.32,12.41,47.59359,-54.27349
2023-09-17 05:34:01+00:00,199.0,14.55,200.0,17.19,12.41,47.59359,-54.27349
2023-09-17 05:44:01+00:00,197.0,15.1,195.0,17.73,12.41,47.59359,-54.27349
2023-09-17 05:54:01+00:00,198.0,14.43,201.0,16.84,12.41,47.59359,-54.27349
2023-09-17 06:04:01+00:00,200.0,14.42,201.0,17.26,12.41,47.59359,-54.27349
2023-09-17 06:14:00+00:00,203.0,13.31,202.0,15.86,12.41,47.59359,-54.27349
2023-09-17 06:24:00+00:00,202.0,13.25,200.0,15.63,12.41,47.59359,-54.27349
2023-09-17 06:34:00+00:00,196.0,15.22,198.0,17.12,12.41,47.59359,-54.27349
2023-09-17 06:44:00+00:00,204.0,12.11,207.0,14.17,12.41,47.59359,-54.27349
2023-09-17 06:54:00+00:00,208.0,12.27,208.0,13.46,12.41,47.59359,-54.27349
2023-09-17 07:04:00+00:00,204.0,12.84,195.0,14.76,12.41,47.59359,-54.27349
2023-09-17 07:14:00+00:00,203.0,12.97,197.0,14.3,12.33,47.59359,-54.27349
2023-09-17 07:24:00+00:00,202.0,12.54,206.0,14.22,12.33,47.59359,-54.27349
2023-09-17 07:34:00+00:00,206.0,11.89,209.0,13.19,12.33,47.59359,-54.27349
2023-09-17 07:44:00+00:00,207.0,12.22,208.0,13.38,12.33,47.59359,-54.27349
2023-09-17 07:54:00+00:00,208.0,12.39,206.0,14.21,12.33,47.59359,-54.27349
2023-09-17 08:04:00+00:00,208.0,11.24,212.0,12.54,12.33,47.59359,-54.27349
2023-09-17 08:14:01+00:00,208.0,12.09,207.0,13.04,12.33,47.59359,-54.27349
2023-09-17 08:24:01+00:00,206.0,11.81,209.0,13.16,12.33,47.59359,-54.27349
2023-09-17 08:34:01+00:00,204.0,12.66,207.0,14.29,12.33,47.59359,-54.27349
2023-09-17 08:44:01+00:00,207.0,11.73,210.0,12.76,12.33,47.59359,-54.27349
2023-09-17 08:54:01+00:00,209.0,12.18,209.0,13.05,12.33,47.59359,-54.27349
2023-09-17 09:04:01+00:00,211.0,10.85,211.0,11.89,12.33,47.59359,-54.27349
2023-09-17 09:14:01+00:00,204.0,9.22,209.0,10.97,12.25,47.59359,-54.27349
2023-09-17 09:24:01+00:00,207.0,9.04,205.0,10.17,12.25,47.59359,-54.27349
2023-09-17 09:34:01+00:00,210.0,8.63,214.0,9.54,12.25,47.59359,-54.27349
2023-09-17 09:44:01+00:00,234.0,8.67,245.0,11.72,12.25,47.59359,-54.27349
2023-09-17 09:54:01+00:00,217.0,8.28,217.0,10.32,12.25,47.59359,-54.27349
2023-09-17 10:04:01+00:00,225.0,7.3,230.0,8.22,12.25,47.59359,-54.27349
2023-09-17 10:14:00+00:00,230.0,7.95,233.0,9.22,12.25,47.59359,-54.27349
2023-09-17 10:24:00+00:00,226.0,7.81,230.0,9.18,12.25,47.59359,-54.27349
2023-09-17 10:34:00+00:00,219.0,7.59,220.0,8.61,12.25,47.59359,-54.27349
2023-09-17 10:44:00+00:00,216.0,7.49,216.0,8.27,12.25,47.59359,-54.27349
2023-09-17 10:54:00+00:00,215.0,8.41,217.0,9.69,12.25,47.59359,-54.27349
2023-09-17 11:04:00+00:00,216.0,8.53,222.0,9.29,12.25,47.59359,-54.27349
2023-09-17 11:14:01+00:00,212.0,9.14,212.0,10.28,12.49,47.59359,-54.27349
2023-09-17 11:24:01+00:00,212.0,9.17,205.0,10.88,12.49,47.59359,-54.27349
2023-09-17 11:34:01+00:00,210.0,8.07,219.0,9.53,12.49,47.59359,-54.27349
2023-09-17 11:44:01+00:00,209.0,8.29,206.0,9.53,12.49,47.59359,-54.27349
2023-09-17 11:54:01+00:00,202.0,8.35,203.0,10.0,12.49,47.59359,-54.27349
2023-09-17 12:04:01+00:00,210.0,8.54,208.0,9.82,12.49,47.59359,-54.27349
2023-09-17 12:14:00+00:00,212.0,7.9,209.0,8.67,13.05,47.59359,-54.27349
2023-09-17 12:24:00+00:00,216.0,7.19,213.0,7.94,13.05,47.59359,-54.27349
2023-09-17 12:34:00+00:00,213.0,7.32,214.0,8.23,13.05,47.59359,-54.27349
2023-09-17 12:44:00+00:00,212.0,7.56,209.0,8.66,13.05,47.59359,-54.27349
2023-09-17 12:54:00+00:00,206.0,7.83,204.0,9.81,13.05,47.59359,-54.27349
2023-09-17 13:04:00+00:00,211.0,7.34,207.0,8.21,13.05,47.59359,-54.27349
2023-09-17 13:14:00+00:00,209.0,7.73,214.0,8.81,13.44,47.59359,-54.27349
2023-09-17 13:24:00+00:00,210.0,7.4,220.0,8.32,13.44,47.59359,-54.27349
2023-09-17 13:34:00+00:00,213.0,8.18,214.0,9.62,13.44,47.59359,-54.27349
2023-09-17 13:44:00+00:00,219.0,8.42,223.0,10.2,13.44,47.59359,-54.27349
2023-09-17 13:54:00+00:00,220.0,7.98,223.0,8.74,13.44,47.59359,-54.27349
2023-09-17 14:04:00+00:00,215.0,8.57,222.0,9.72,13.44,47.59359,-54.27349
2023-09-17 14:14:01+00:00,216.0,8.35,225.0,9.76,14.0,47.59359,-54.27349
2023-09-17 14:24:01+00:00,216.0,8.22,219.0,10.48,14.0,47.59359,-54.27349
2023-09-17 14:34:01+00:00,212.0,6.81,214.0,7.47,14.0,47.59359,-54.27349
2023-09-17 14:44:01+00:00,212.0,6.51,213.0,6.52,14.0,47.59359,-54.27349
2023-09-17 14:54:01+00:00,203.0,6.42,205.0,7.7,14.0,47.59359,-54.27349
2023-09-17 15:04:01+00:00,219.0,7.51,218.0,8.47,14.0,47.59359,-54.27349
2023-09-17 15:14:00+00:00,214.0,8.27,213.0,9.75,13.84,47.59359,-54.27349
2023-09-17 15:24:00+00:00,216.0,8.6,216.0,10.09,13.84,47.59359,-54.27349
2023-09-17 15:34:00+00:00,218.0,8.75,215.0,10.2,13.84,47.59359,-54.27349
2023-09-17 15:44:00+00:00,224.0,7.87,230.0,9.06,13.84,47.59359,-54.27349
2023-09-17 15:54:00+00:00,220.0,7.7,219.0,9.25,13.84,47.59359,-54.27349
2023-09-17 16:04:00+00:00,213.0,8.39,213.0,9.87,13.84,47.59359,-54.27349
2023-09-17 16:14:01+00:00,215.0,8.69,212.0,9.99,14.32,47.59359,-54.27349
2023-09-17 16:24:01+00:00,216.0,10.13,215.0,12.95,14.32,47.59359,-54.27349
2023-09-17 16:34:01+00:00,219.0,8.93,218.0,10.18,14.32,47.59359,-54.27349
2023-09-17 16:44:01+00:00,227.0,9.05,222.0,10.21,14.32,47.59359,-54.27349
2023-09-17 16:54:01+00:00,219.0,9.15,219.0,10.22,14.32,47.59359,-54.27349
2023-09-17 17:04:01+00:00,220.0,10.97,222.0,13.43,14.32,47.59359,-54.27349
2023-09-17 17:14:01+00:00,213.0,11.12,221.0,12.64,14.08,47.59359,-54.27349
2023-09-17 17:24:01+00:00,208.0,12.65,211.0,14.56,14.08,47.59359,-54.27349
2023-09-17 17:34:01+00:00,210.0,12.24,213.0,13.71,14.08,47.59359,-54.27349
2023-09-17 17:44:01+00:00,213.0,11.74,224.0,15.2,14.08,47.59359,-54.27349
2023-09-17 17:54:01+00:00,215.0,13.41,226.0,17.45,14.08,47.59359,-54.27349
2023-09-17 18:04:01+00:00,215.0,12.19,221.0,14.67,14.08,47.59359,-54.27349
2023-09-17 18:14:00+00:00,206.0,13.77,217.0,18.97,14.16,47.59359,-54.27349
2023-09-17 18:24:00+00:00,216.0,14.22,225.0,18.16,14.16,47.59359,-54.27349
2023-09-17 18:34:00+00:00,217.0,14.78,224.0,18.88,14.16,47.59359,-54.27349
2023-09-17 18:44:00+00:00,212.0,14.44,225.0,18.11,14.16,47.59359,-54.27349
2023-09-17 18:54:00+00:00,207.0,15.52,214.0,19.11,14.16,47.59359,-54.27349
2023-09-17 19:04:00+00:00,210.0,15.78,220.0,19.51,14.16,47.59359,-54.27349
2023-09-17 19:14:00+00:00,210.0,16.76,213.0,20.0,14.0,47.59359,-54.27349
2023-09-17 19:24:00+00:00,211.0,15.75,220.0,20.03,14.0,47.59359,-54.27349
2023-09-17 19:34:00+00:00,206.0,16.02,220.0,21.44,14.0,47.59359,-54.27349
2023-09-17 19:44:00+00:00,213.0,16.6,220.0,20.16,14.0,47.59359,-54.27349
2023-09-17 19:54:00+00:00,206.0,18.21,216.0,22.62,14.0,47.59359,-54.27349
2023-09-17 20:04:00+00:00,208.0,15.37,218.0,20.43,14.0,47.59359,-54.27349
2023-09-17 20:14:00+00:00,212.0,16.58,221.0,20.58,13.6,47.59359,-54.27349
2023-09-17 20:24:00+00:00,205.0,16.44,215.0,20.71,13.6,47.59359,-54.27349
2023-09-17 20:34:00+00:00,205.0,14.23,204.0,16.81,13.6,47.59359,-54.27349
2023-09-17 20:44:00+00:00,205.0,15.92,217.0,21.19,13.6,47.59359,-54.27349
2023-09-17 20:54:00+00:00,206.0,16.1,214.0,20.82,13.6,47.59359,-54.27349
2023-09-17 21:04:00+00:00,207.0,14.85,219.0,19.72,13.6,47.59359,-54.27349
2023-09-17 21:14:00+00:00,205.0,15.88,212.0,19.78,13.05,47.59359,-54.27349
2023-09-17 21:24:00+00:00,207.0,15.37,221.0,19.65,13.05,47.59359,-54.27349
2023-09-17 21:34:00+00:00,212.0,14.95,225.0,18.17,13.05,47.59359,-54.27349
2023-09-17 21:44:00+00:00,214.0,12.67,225.0,18.08,13.05,47.59359,-54.27349
2023-09-17 21:54:00+00:00,213.0,16.54,224.0,19.84,13.05,47.59359,-54.27349
2023-09-17 22:04:00+00:00,222.0,15.86,218.0,19.26,13.05,47.59359,-54.27349
2023-09-17 22:14:00+00:00,220.0,17.67,221.0,20.08,12.49,47.59359,-54.27349
2023-09-17 22:24:00+00:00,225.0,16.07,225.0,18.6,12.49,47.59359,-54.27349
2023-09-17 22:34:00+00:00,225.0,16.97,220.0,18.82,12.49,47.59359,-54.27349
2023-09-17 22:44:00+00:00,226.0,16.07,226.0,18.13,12.49,47.59359,-54.27349
2023-09-17 22:54:00+00:00,228.0,15.72,221.0,19.08,12.49,47.59359,-54.27349
2023-09-17 23:04:00+00:00,225.0,15.63,223.0,18.31,12.49,47.59359,-54.27349
2023-09-17 23:14:00+00:00,227.0,16.74,230.0,18.85,12.49,47.59359,-54.27349
2023-09-17 23:24:00+00:00,229.0,15.91,230.0,17.94,12.49,47.59359,-54.27349
2023-09-17 23:34:00+00:00,226.0,15.91,223.0,18.48,12.49,47.59359,-54.27349
2023-09-17 23:44:00+00:00,227.0,15.45,220.0,18.27,12.49,47.59359,-54.27349
2023-09-17 23:54:00+00:00,226.0,14.64,227.0,17.36,12.49,47.59359,-54.27349
